Tracking 28779 objects as of 15-Apr-2024
HD Live streaming from Space Station
objects crossing your sky now

FENGYUN 1C DEB

Track FENGYUN 1C DEB now!
10-day predictions


NORAD ID: 31348
Int'l Code: 1999-025BRC
Perigee: 783.2 km
Apogee: 839.5 km
Inclination: 99.1 °
Period: 101.0 minutes
Semi major axis: 7182 km
RCS: 0.0184 m2 (small)
Launch date: May 10, 1999
Source: People's Republic of China (PRC)
Launch site: Taiyaun Space Center, China (TSC)

Note: This is SATELLITE DEBRIS
Your satellite tracking list
Your tracking list is empty




NASA's NSSDC Master Catalog

Two Line Element Set (TLE):
1 31348U 99025BRC 24105.58700410  .00004989  00000-0  20812-2 0  9996
2 31348  99.0828  23.0597 0039139  29.2755  93.4097 14.26273724875682
Source of the keplerian elements: AFSPC